天启-6星 (TIANQI-6)

导读

TIANQI-6即天启六号(天启星座06星),是中国北京国电高科科技有限公司运营的低轨物联网卫星,于北京时间2020年10月26日08时,在西昌卫星发射中心由长征二号丙运载火箭发射升空。卫星采用创新L型构型设计,运行于近地轨道,属于天启物联网星座的组成部分,可为林业、农业、应急等多领域提供卫星物联网通信服务。

Basic Information
目录编号:
46810
目录名称:
TIANQI-6
国际标识:
2020-076D
轨道中心:
EARTH
卫星名称:
天启-6星
卫星全名:
天启-6星 (TIANQI-6)
卫星状态:
在轨 (已飞行2139 天)
发射日期:
2020-10-26 UTC
国别 :
中国 (CN)
星等 :
--
Orbit Information
数据来源 国际轨道数据
星历时间: 2026-09-04T19:35:29+0800
9小时前
查看轨道信息
半长轴: 6921.6km
偏心率: 0.0010023
轨道倾角: 34.999°
近地点辐角 152.967°
升交点赤经 281.627°
平近点角 207.156°
近地点: 536.525km
远地点: 550.401km
周期: 95.515分钟
每日圈数: 15.076241
Detailed Information
平衡模式:
三轴稳定
覆盖范围:
全球
运营商:
北京国电高科科技有限公司
运营商所在国:
中国
制造商(研发单位):
北京国电高科科技有限公司
制造商所在国:
中国
使用方式:
暂无
Satellite Introduction
天启星座(Tianqi)由38颗卫星组网而成,提供全球短数据采集。致力于为全球物联网相关行业用户提供覆盖全球、准实时的物联网卫星数据服务,真正实现空中、海洋和地面的万物互联,构建天地一体化的卫星物联网生态系统,全面解决海上、空中以及陆地网络盲区(我国有70%以上陆地没有网络覆盖)的物联网数据通信问题。该卫星仍在工作。
2D Orbit Map
3D Orbit Map
Orbit Altitude Analysis Chart
Orbit Inclination Analysis Chart
Orbit Comprehensive Analysis Chart
View Comprehensive Chart
Conjunction Data List
Event ID Objects TCA Miss Dist (km) Collision Risk Probability Collision Risk Index (CRI) Action
CDM_260905-212804-681006-707322
TIANQI-6 (46810)
RAISE-4 (67073)
2026-09-05T
21:28:00+0000
2.110 km
极远距离
2.284951E-6 低风险 0.42
CDM_260906-030004-681005-909922
TIANQI-6 (46810)
MUSAT2 (59099)
2026-09-06T
03:00:41+0000
2.191 km
极远距离
2.079517E-6 低风险 0.41
CDM_260903-202004-681005-268722
TIANQI-6 (46810)
2026-09-03T
20:20:52+0000
2.250 km
极远距离
1.697204E-6 低风险 0.4